Location: Byhalia Creek
(34.8270°N, 89.8040°W)
Time: 08:39:12
(UTC+00:00)

Cosmos 1821 Rocket - Pass Details

Date: 22 April 2026
Orbit: 945 x 1003 km, 82.9° (Epoch: 15 May)

Event Time Altitude Azimuth Distance (km) Brightness Sun altitude
Rises 02:04:16 0° 192° (SSW) 3,647 6.8 -17.5°
Reaches altitude 10° 02:06:46 10° 194° (SSW) 2,712 6.2 -17.9°
Maximum altitude 02:12:58 69° 277° (W) 1,052 4.3 -19.0°
Drops below altitude 10° 02:19:17 10° 1° (N) 2,765 6.8 -20.1°
Sets 02:21:52 0° 4° (N) 3,723 7.4 -20.6°
